Location: Austin
(30.3000°N, 97.7500°W)
Time: 23:05:47
(UTC-05:00)

Cosmos 2082 Rocket - Pass Details

Date: 06 May 2026
Orbit: 831 x 853 km, 71.0° (Epoch: 13 May)

Event Time Altitude Azimuth Distance (km) Brightness Sun altitude
Exits shadow 23:00:02 48° 17° (NNE) 1,096 2.8 -31.0°
Drops below altitude 10° 23:04:06 10° 19° (NNE) 2,484 4.9 -31.6°
Sets 23:06:33 0° 20° (NNE) 3,422 5.7 -31.9°
